| time (UTC) | temp F | wind direction | speed MPH | gust MPH | rain 1hr in | rain 24hr in | rain mn in | humidity % | barometer mb |
| 20260509223837 | 68 | 155 | 2.0 | 8.0 | 0.00 | 0.09 | 0.09 | 55 | 1006.6 |
| 20260509223334 | 69 | 65 | 3.0 | 13.0 | 0.00 | 0.09 | 0.09 | 56 | 1006.6 |
| 20260509222831 | 69 | 90 | 1.0 | 4.0 | 0.00 | 0.09 | 0.09 | 57 | 1006.4 |
| 20260509222326 | 69 | 61 | 1.0 | 3.0 | 0.00 | 0.09 | 0.09 | 56 | 1006.5 |
| 20260509221822 | 69 | 102 | 2.0 | 3.0 | 0.00 | 0.09 | 0.09 | 56 | 1006.7 |
| 20260509221320 | 69 | 59 | 1.0 | 2.0 | 0.00 | 0.09 | 0.09 | 57 | 1006.7 |
| 20260509220819 | 69 | 132 | 5.0 | 8.0 | 0.00 | 0.09 | 0.09 | 57 | 1006.8 |
| 20260509220316 | 69 | 139 | 1.0 | 7.0 | 0.00 | 0.09 | 0.09 | 59 | 1006.8 |
| 20260509215811 | 68 | 12 | 1.0 | 6.0 | 0.00 | 0.09 | 0.09 | 58 | 1006.8 |
| 20260509215308 | 68 | 161 | 3.0 | 13.0 | 0.00 | 0.09 | 0.09 | 58 | 1006.7 |
| 20260509214805 | 68 | 108 | 1.0 | 7.0 | 0.00 | 0.09 | 0.09 | 58 | 1006.7 |
| 20260509214302 | 69 | 105 | 1.0 | 2.0 | 0.00 | 0.09 | 0.09 | 58 | 1006.7 |
| 20260509213759 | 69 | 72 | 1.0 | 6.0 | 0.00 | 0.09 | 0.09 | 57 | 1006.8 |
| 20260509213255 | 69 | 266 | 8.0 | 10.0 | 0.00 | 0.09 | 0.09 | 55 | 1006.9 |
| 20260509212752 | 69 | 109 | 5.0 | 9.0 | 0.00 | 0.09 | 0.09 | 55 | 1006.8 |
| 20260509212250 | 68 | 327 | 3.0 | 15.0 | 0.00 | 0.09 | 0.09 | 56 | 1006.9 |
| 20260509211745 | 68 | 311 | 0.0 | 4.0 | 0.00 | 0.09 | 0.09 | 56 | 1006.9 |
| 20260509211242 | 69 | 126 | 2.0 | 14.0 | 0.00 | 0.09 | 0.09 | 56 | 1006.9 |
| 20260509210738 | 69 | 1 | 2.0 | 7.0 | 0.00 | 0.09 | 0.09 | 56 | 1006.9 |
| 20260509210237 | 69 | 339 | 1.0 | 9.0 | 0.00 | 0.09 | 0.09 | 56 | 1007.1 |
| 20260509205735 | 70 | 113 | 4.0 | 7.0 | 0.00 | 0.09 | 0.09 | 57 | 1007.2 |
| 20260509205236 | 69 | 130 | 2.0 | 3.0 | 0.00 | 0.09 | 0.09 | 57 | 1007.2 |
| 20260509204732 | 69 | 306 | 0.0 | 6.0 | 0.00 | 0.09 | 0.09 | 56 | 1007.4 |
| 20260509204228 | 68 | 104 | 6.0 | 7.0 | 0.00 | 0.09 | 0.09 | 60 | 1007.5 |
| 20260509203724 | 68 | 98 | 4.0 | 10.0 | 0.00 | 0.09 | 0.09 | 58 | 1007.6 |
| 20260509203223 | 67 | 273 | 2.0 | 6.0 | 0.00 | 0.09 | 0.09 | 59 | 1007.5 |
| 20260509202718 | 68 | 116 | 0.0 | 3.0 | 0.00 | 0.09 | 0.09 | 60 | 1007.5 |
| 20260509202214 | 68 | 143 | 1.0 | 7.0 | 0.00 | 0.09 | 0.09 | 63 | 1007.6 |
| 20260509201709 | 67 | 131 | 4.0 | 8.0 | 0.00 | 0.09 | 0.09 | 62 | 1007.5 |
| 20260509201206 | 66 | 351 | 2.0 | 7.0 | 0.00 | 0.09 | 0.09 | 67 | 1007.8 |
| 20260509200702 | 66 | 337 | 2.0 | 10.0 | 0.00 | 0.09 | 0.09 | 64 | 1007.8 |
| 20260509200157 | 66 | 159 | 1.0 | 4.0 | 0.00 | 0.09 | 0.09 | 64 | 1008.0 |
| 20260509195653 | 66 | 58 | 2.0 | 4.0 | 0.00 | 0.09 | 0.09 | 64 | 1007.9 |
| 20260509195149 | 66 | 89 | 2.0 | 3.0 | 0.00 | 0.09 | 0.09 | 65 | 1008.3 |
| 20260509194648 | 66 | 274 | 2.0 | 4.0 | 0.00 | 0.09 | 0.09 | 65 | 1008.4 |
| 20260509194146 | 66 | 268 | 2.0 | 7.0 | 0.00 | 0.09 | 0.09 | 66 | 1008.6 |
| 20260509193641 | 66 | 305 | 0.0 | 4.0 | 0.00 | 0.09 | 0.09 | 66 | 1008.2 |
| 20260509193137 | 66 | 135 | 1.0 | 10.0 | 0.00 | 0.09 | 0.09 | 65 | 1008.2 |
| 20260509192634 | 67 | 125 | 0.0 | 2.0 | 0.00 | 0.09 | 0.09 | 66 | 1008.3 |
| 20260509192130 | 67 | 113 | 2.0 | 9.0 | 0.00 | 0.09 | 0.09 | 65 | 1008.2 |
| 20260509191629 | 65 | 98 | 4.0 | 8.0 | 0.00 | 0.09 | 0.09 | 67 | 1008.3 |
| 20260509191126 | 65 | 169 | 2.0 | 8.0 | 0.00 | 0.09 | 0.09 | 71 | 1008.6 |
| 20260509190623 | 65 | 58 | 2.0 | 7.0 | 0.00 | 0.09 | 0.09 | 70 | 1008.5 |
| 20260509190120 | 65 | 333 | 7.0 | 8.0 | 0.00 | 0.09 | 0.09 | 70 | 1008.7 |
| 20260509185618 | 65 | 170 | 1.0 | 14.0 | 0.00 | 0.09 | 0.09 | 71 | 1008.6 |
| 20260509185113 | 66 | 114 | 1.0 | 8.0 | 0.00 | 0.09 | 0.09 | 70 | 1008.5 |
| 20260509184612 | 65 | 18 | 2.0 | 4.0 | 0.00 | 0.09 | 0.09 | 71 | 1008.5 |
| 20260509184108 | 64 | 234 | 0.0 | 13.0 | 0.00 | 0.09 | 0.09 | 73 | 1008.6 |
| 20260509183603 | 64 | 131 | 1.0 | 9.0 | 0.00 | 0.09 | 0.09 | 72 | 1008.6 |
| 20260509183059 | 64 | 296 | 2.0 | 11.0 | 0.00 | 0.09 | 0.09 | 73 | 1008.7 |
| 20260509182556 | 64 | 316 | 0.0 | 4.0 | 0.00 | 0.09 | 0.09 | 75 | 1008.8 |
| 20260509182053 | 64 | 93 | 2.0 | 9.0 | 0.00 | 0.09 | 0.09 | 75 | 1008.7 |
| 20260509181551 | 65 | 101 | 1.0 | 6.0 | 0.00 | 0.09 | 0.09 | 74 | 1008.9 |
| 20260509181048 | 65 | 154 | 2.0 | 3.0 | 0.00 | 0.09 | 0.09 | 73 | 1008.9 |
| 20260509180544 | 63 | 291 | 2.0 | 4.0 | 0.00 | 0.09 | 0.09 | 77 | 1008.8 |
| 20260509180042 | 62 | 339 | 3.0 | 8.0 | 0.00 | 0.09 | 0.09 | 78 | 1008.9 |
| 20260509175537 | 61 | 132 | 4.0 | 7.0 | 0.00 | 0.09 | 0.09 | 80 | 1008.8 |
| 20260509175034 | 61 | 113 | 1.0 | 6.0 | 0.00 | 0.09 | 0.09 | 81 | 1009.0 |
| 20260509174530 | 62 | 304 | 6.0 | 11.0 | 0.00 | 0.09 | 0.09 | 79 | 1008.9 |
| 20260509174026 | 62 | 359 | 1.0 | 3.0 | 0.00 | 0.09 | 0.09 | 80 | 1008.8 |
| 20260509173520 | 62 | 234 | 6.0 | 7.0 | 0.00 | 0.09 | 0.09 | 80 | 1009.0 |
| 20260509173017 | 62 | 71 | 1.0 | 6.0 | 0.00 | 0.09 | 0.09 | 83 | 1008.9 |
| 20260509172514 | 61 | 318 | 0.0 | 3.0 | 0.00 | 0.09 | 0.09 | 84 | 1009.0 |
| 20260509172009 | 61 | 76 | 0.0 | 1.0 | 0.00 | 0.09 | 0.09 | 84 | 1008.8 |
| 20260509171506 | 60 | 39 | 2.0 | 3.0 | 0.00 | 0.09 | 0.09 | 85 | 1009.0 |
| 20260509171002 | 59 | 56 | 0.0 | 1.0 | 0.00 | 0.09 | 0.09 | 87 | 1009.1 |
| 20260509170458 | 59 | 352 | 0.0 | 3.0 | 0.00 | 0.09 | 0.09 | 88 | 1009.1 |
| 20260509165954 | 60 | 47 | 1.0 | 2.0 | 0.00 | 0.09 | 0.09 | 88 | 1009.0 |
| 20260509165453 | 59 | 32 | 0.0 | 1.0 | 0.00 | 0.09 | 0.09 | 89 | 1009.0 |
| 20260509164949 | 59 | 74 | 0.0 | 2.0 | 0.00 | 0.09 | 0.09 | 88 | 1009.1 |
| 20260509164444 | 59 | 346 | 0.0 | 0.0 | 0.00 | 0.09 | 0.09 | 89 | 1009.0 |
| 20260509163941 | 59 | 112 | 0.0 | 3.0 | 0.00 | 0.09 | 0.09 | 88 | 1009.1 |
| 20260509163438 | 58 | 337 | 0.0 | 1.0 | 0.00 | 0.09 | 0.09 | 91 | 1009.0 |
| 20260509162937 | 58 | 260 | 1.0 | 4.0 | 0.00 | 0.09 | 0.09 | 89 | 1009.1 |
| 20260509162436 | 58 | 88 | 0.0 | 2.0 | 0.00 | 0.09 | 0.09 | 90 | 1009.2 |
| 20260509161932 | 58 | 95 | 4.0 | 6.0 | 0.00 | 0.09 | 0.09 | 90 | 1009.0 |
| 20260509161428 | 58 | 29 | 0.0 | 3.0 | 0.00 | 0.09 | 0.09 | 92 | 1009.1 |
| 20260509160924 | 57 | 308 | 2.0 | 4.0 | 0.00 | 0.09 | 0.09 | 93 | 1009.1 |
| 20260509160420 | 58 | 155 | 0.0 | 8.0 | 0.00 | 0.09 | 0.09 | 93 | 1009.1 |
| 20260509155915 | 57 | 0 | 1.0 | 2.0 | 0.00 | 0.09 | 0.09 | 95 | 1009.1 |
| 20260509155412 | 56 | 58 | 2.0 | 3.0 | 0.00 | 0.09 | 0.09 | 96 | 1009.1 |
| 20260509154908 | 55 | 83 | 2.0 | 3.0 | 0.00 | 0.09 | 0.09 | 98 | 1009.0 |
| 20260509154405 | 55 | 83 | 0.0 | 2.0 | 0.00 | 0.09 | 0.09 | 98 | 1008.8 |
| 20260509153901 | 55 | 335 | 0.0 | 1.0 | 0.00 | 0.09 | 0.09 | 97 | 1008.9 |
| 20260509153359 | 55 | 53 | 0.0 | 2.0 | 0.00 | 0.09 | 0.09 | 98 | 1009.0 |
| 20260509152856 | 55 | 100 | 2.0 | 3.0 | 0.00 | 0.09 | 0.09 | 97 | 1009.0 |
| 20260509152352 | 55 | 223 | 4.0 | 4.0 | 0.00 | 0.09 | 0.09 | 99 | 1008.9 |
| 20260509151849 | 54 | 59 | 1.0 | 2.0 | 0.00 | 0.09 | 0.09 | 99 | 1008.8 |
| 20260509151345 | 54 | 120 | 1.0 | 3.0 | 0.00 | 0.09 | 0.09 | 99 | 1009.0 |
| 20260509150843 | 53 | 64 | 2.0 | 3.0 | 0.00 | 0.09 | 0.09 | 99 | 1009.1 |
| 20260509150341 | 53 | 106 | 0.0 | 1.0 | 0.00 | 0.09 | 0.09 | 99 | 1009.0 |
| 20260509145838 | 53 | 64 | 0.0 | 1.0 | 0.00 | 0.09 | 0.09 | 99 | 1009.2 |
| 20260509145332 | 53 | 76 | 0.0 | 1.0 | 0.00 | 0.09 | 0.09 | 99 | 1009.1 |
| 20260509144830 | 52 | 51 | 1.0 | 1.0 | 0.05 | 0.09 | 0.09 | 99 | 1009.1 |
| 20260509144326 | 52 | 105 | 0.0 | 4.0 | 0.05 | 0.09 | 0.09 | 99 | 1008.9 |
| 20260509143823 | 52 | 71 | 1.0 | 1.0 | 0.00 | 0.08 | 0.08 | 99 | 1009.1 |
| 20260509143321 | 52 | 1 | 0.0 | 1.0 | 0.00 | 0.08 | 0.08 | 99 | 1009.3 |
| 20260509142817 | 52 | 65 | 0.0 | 0.0 | 0.00 | 0.08 | 0.08 | 99 | 1009.1 |
| 20260509142313 | 52 | 74 | 0.0 | 2.0 | 0.07 | 0.08 | 0.08 | 99 | 1009.2 |
| 20260509141809 | 52 | 63 | 0.0 | 0.0 | 0.07 | 0.08 | 0.08 | 99 | 1009.2 |
| 20260509141306 | 52 | 105 | 2.0 | 2.0 | 0.00 | 0.07 | 0.07 | 99 | 1009.2 |
| 20260509140803 | 52 | 84 | 0.0 | 0.0 | 0.00 | 0.07 | 0.07 | 99 | 1009.1 |
| 20260509140300 | 52 | 114 | 1.0 | 3.0 | 0.00 | 0.07 | 0.07 | 99 | 1009.1 |
| 20260509135758 | 52 | 96 | 2.0 | 2.0 | 0.00 | 0.07 | 0.07 | 99 | 1009.1 |
| 20260509135255 | 52 | 102 | 2.0 | 4.0 | 0.00 | 0.07 | 0.07 | 99 | 1009.2 |
| 20260509134752 | 52 | 99 | 2.0 | 3.0 | 0.00 | 0.07 | 0.07 | 99 | 1009.2 |
| 20260509134249 | 52 | 5 | 0.0 | 2.0 | 0.00 | 0.07 | 0.07 | 99 | 1009.2 |
| 20260509133746 | 52 | 49 | 0.0 | 2.0 | 0.00 | 0.07 | 0.07 | 99 | 1009.4 |
| 20260509133243 | 51 | 62 | 0.0 | 0.0 | 0.00 | 0.07 | 0.07 | 99 | 1009.3 |
| 20260509132742 | 52 | 341 | 1.0 | 3.0 | 0.00 | 0.07 | 0.07 | 99 | 1009.4 |
| 20260509132240 | 51 | 94 | 1.0 | 2.0 | 0.05 | 0.07 | 0.07 | 99 | 1009.4 |
| 20260509131736 | 51 | 110 | 0.0 | 2.0 | 0.05 | 0.07 | 0.07 | 99 | 1009.4 |
| 20260509131233 | 51 | 54 | 0.0 | 3.0 | 0.00 | 0.06 | 0.06 | 99 | 1009.1 |
| 20260509130729 | 51 | 83 | 2.0 | 4.0 | 0.00 | 0.06 | 0.06 | 99 | 1009.3 |
| 20260509130225 | 51 | 68 | 1.0 | 3.0 | 0.00 | 0.06 | 0.06 | 99 | 1009.2 |
| 20260509125721 | 51 | 46 | 0.0 | 0.0 | 0.00 | 0.06 | 0.06 | 99 | 1009.3 |
| 20260509125219 | 51 | 76 | 1.0 | 1.0 | 0.00 | 0.06 | 0.06 | 99 | 1009.3 |
| 20260509124715 | 51 | 60 | 0.0 | 1.0 | 0.00 | 0.06 | 0.06 | 99 | 1009.4 |
| 20260509124212 | 51 | 95 | 0.0 | 0.0 | 0.00 | 0.06 | 0.06 | 99 | 1009.4 |
| 20260509123710 | 51 | 4 | 0.0 | 0.0 | 0.07 | 0.06 | 0.06 | 99 | 1009.2 |
| 20260509123207 | 51 | 39 | 0.0 | 0.0 | 0.07 | 0.06 | 0.06 | 99 | 1009.1 |
| 20260509122702 | 51 | 52 | 0.0 | 0.0 | 0.00 | 0.05 | 0.05 | 99 | 1009.4 |
| 20260509122154 | 51 | 32 | 1.0 | 1.0 | 0.00 | 0.05 | 0.05 | 99 | 1009.5 |
| 20260509121650 | 50 | 10 | 0.0 | 0.0 | 0.00 | 0.05 | 0.05 | 99 | 1009.4 |
| 20260509121149 | 50 | 83 | 0.0 | 0.0 | 0.00 | 0.05 | 0.05 | 99 | 1009.4 |
| 20260509120646 | 50 | 72 | 0.0 | 3.0 | 0.00 | 0.05 | 0.05 | 99 | 1009.3 |
| 20260509120144 | 50 | 92 | 0.0 | 0.0 | 0.00 | 0.05 | 0.05 | 99 | 1009.4 |
| 20260509115641 | 50 | 100 | 1.0 | 2.0 | 0.00 | 0.05 | 0.05 | 99 | 1009.3 |
| 20260509115139 | 50 | 96 | 1.0 | 2.0 | 0.00 | 0.05 | 0.05 | 99 | 1009.3 |
| 20260509114636 | 50 | 90 | 0.0 | 0.0 | 0.00 | 0.05 | 0.05 | 99 | 1009.4 |
| 20260509114135 | 50 | 100 | 0.0 | 2.0 | 0.00 | 0.05 | 0.05 | 99 | 1009.3 |
| 20260509113633 | 50 | 81 | 0.0 | 0.0 | 0.00 | 0.05 | 0.05 | 99 | 1009.3 |
| 20260509113125 | 49 | 119 | 0.0 | 0.0 | 0.00 | 0.05 | 0.05 | 99 | 1009.5 |
| 20260509112621 | 49 | 72 | 0.0 | 0.0 | 0.00 | 0.05 | 0.05 | 99 | 1009.3 |
| 20260509112118 | 49 | 95 | 0.0 | 0.0 | 0.00 | 0.05 | 0.05 | 99 | 1009.5 |
| 20260509111615 | 49 | 96 | 0.0 | 0.0 | 0.00 | 0.05 | 0.05 | 99 | 1009.2 |
| 20260509111112 | 49 | 102 | 0.0 | 0.0 | 0.00 | 0.05 | 0.05 | 99 | 1009.2 |
| 20260509110609 | 49 | 347 | 0.0 | 0.0 | 0.00 | 0.05 | 0.05 | 99 | 1009.3 |
| 20260509110106 | 49 | 33 | 0.0 | 0.0 | 0.00 | 0.05 | 0.05 | 99 | 1009.4 |
| 20260509105604 | 49 | 92 | 0.0 | 0.0 | 0.00 | 0.05 | 0.05 | 99 | 1009.4 |
| 20260509105102 | 49 | 97 | 0.0 | 0.0 | 0.00 | 0.05 | 0.05 | 99 | 1009.4 |
| 20260509104558 | 49 | 78 | 0.0 | 0.0 | 0.00 | 0.05 | 0.05 | 99 | 1009.2 |
| 20260509104055 | 49 | 105 | 0.0 | 0.0 | 0.00 | 0.05 | 0.05 | 99 | 1009.3 |
| 20260509103553 | 49 | 50 | 0.0 | 0.0 | 0.00 | 0.05 | 0.05 | 99 | 1009.4 |
| 20260509103051 | 49 | 71 | 0.0 | 0.0 | 0.00 | 0.05 | 0.05 | 99 | 1009.2 |
| 20260509102548 | 49 | 88 | 0.0 | 0.0 | 0.00 | 0.05 | 0.05 | 99 | 1009.2 |
| 20260509102045 | 49 | 94 | 0.0 | 0.0 | 0.00 | 0.05 | 0.05 | 99 | 1009.4 |
| 20260509101541 | 49 | 115 | 1.0 | 1.0 | 0.00 | 0.05 | 0.05 | 99 | 1009.1 |
| 20260509101038 | 49 | 100 | 0.0 | 0.0 | 0.00 | 0.05 | 0.05 | 99 | 1009.0 |
| 20260509100535 | 49 | 97 | 0.0 | 0.0 | 0.00 | 0.05 | 0.05 | 99 | 1009.1 |
| 20260509100033 | 49 | 112 | 0.0 | 1.0 | 0.00 | 0.05 | 0.05 | 99 | 1009.2 |
| 20260509095529 | 49 | 96 | 0.0 | 0.0 | 0.00 | 0.05 | 0.05 | 99 | 1009.4 |
| 20260509095027 | 49 | 103 | 0.0 | 0.0 | 0.00 | 0.05 | 0.05 | 99 | 1009.3 |
| 20260509094523 | 49 | 101 | 0.0 | 0.0 | 0.05 | 0.05 | 0.05 | 99 | 1009.6 |
| 20260509094020 | 49 | 101 | 0.0 | 0.0 | 0.05 | 0.05 | 0.05 | 99 | 1009.5 |
| 20260509093518 | 49 | 101 | 0.0 | 0.0 | 0.00 | 0.04 | 0.04 | 99 | 1009.7 |
| 20260509093016 | 49 | 101 | 0.0 | 0.0 | 0.00 | 0.04 | 0.04 | 99 | 1009.6 |
| 20260509092513 | 48 | 84 | 0.0 | 0.0 | 0.00 | 0.04 | 0.04 | 99 | 1009.9 |
| 20260509092012 | 48 | 86 | 0.0 | 0.0 | 0.00 | 0.04 | 0.04 | 99 | 1009.8 |
| 20260509091508 | 48 | 86 | 0.0 | 0.0 | 0.00 | 0.04 | 0.04 | 99 | 1009.7 |
| 20260509091005 | 48 | 86 | 0.0 | 0.0 | 0.00 | 0.04 | 0.04 | 99 | 1009.7 |
| 20260509090503 | 48 | 118 | 0.0 | 0.0 | 0.00 | 0.04 | 0.04 | 99 | 1009.7 |
| 20260509090000 | 48 | 98 | 0.0 | 0.0 | 0.00 | 0.04 | 0.04 | 99 | 1009.7 |
| 20260509085457 | 48 | 94 | 0.0 | 0.0 | 0.00 | 0.04 | 0.04 | 99 | 1009.8 |
| 20260509084953 | 48 | 94 | 0.0 | 0.0 | 0.00 | 0.04 | 0.04 | 99 | 1010.0 |
| 20260509084450 | 48 | 94 | 0.0 | 0.0 | 0.07 | 0.04 | 0.04 | 99 | 1009.9 |
| 20260509083947 | 48 | 82 | 0.0 | 0.0 | 0.07 | 0.04 | 0.04 | 99 | 1010.1 |
| 20260509083445 | 48 | 82 | 0.0 | 0.0 | 0.00 | 0.03 | 0.03 | 99 | 1010.2 |
| 20260509082941 | 48 | 82 | 0.0 | 0.0 | 0.05 | 0.03 | 0.03 | 99 | 1010.1 |
| 20260509082438 | 48 | 46 | 0.0 | 0.0 | 0.05 | 0.03 | 0.03 | 99 | 1010.1 |
| 20260509081935 | 48 | 20 | 0.0 | 0.0 | 0.00 | 0.02 | 0.02 | 99 | 1010.3 |
| 20260509081433 | 48 | 31 | 0.0 | 0.0 | 0.00 | 0.02 | 0.02 | 99 | 1010.3 |
| 20260509080930 | 48 | 2 | 0.0 | 0.0 | 0.00 | 0.02 | 0.02 | 99 | 1010.4 |
| 20260509080427 | 48 | 48 | 0.0 | 0.0 | 0.00 | 0.02 | 0.02 | 99 | 1010.2 |
| 20260509075926 | 48 | 48 | 0.0 | 0.0 | 0.00 | 0.02 | 0.02 | 99 | 1010.3 |
| 20260509075422 | 48 | 48 | 0.0 | 0.0 | 0.00 | 0.02 | 0.02 | 99 | 1010.4 |
| 20260509074920 | 48 | 49 | 0.0 | 0.0 | 0.00 | 0.02 | 0.02 | 99 | 1010.3 |
| 20260509074418 | 48 | 104 | 0.0 | 0.0 | 0.00 | 0.02 | 0.02 | 99 | 1010.1 |
| 20260509073914 | 48 | 119 | 0.0 | 0.0 | 0.00 | 0.02 | 0.02 | 99 | 1010.3 |
| 20260509073410 | 48 | 104 | 0.0 | 0.0 | 0.00 | 0.02 | 0.02 | 99 | 1010.1 |
| 20260509072907 | 48 | 88 | 0.0 | 0.0 | 0.07 | 0.02 | 0.02 | 99 | 1010.0 |
| 20260509072403 | 48 | 118 | 0.0 | 0.0 | 0.00 | 0.01 | 0.01 | 99 | 1010.4 |
| 20260509071900 | 48 | 124 | 0.0 | 0.0 | 0.00 | 0.01 | 0.01 | 99 | 1010.3 |
| 20260509071357 | 48 | 130 | 0.0 | 0.0 | 0.00 | 0.01 | 0.01 | 99 | 1010.2 |
| 20260509070855 | 48 | 92 | 0.0 | 0.0 | 0.00 | 0.01 | 0.01 | 99 | 1010.1 |
| 20260509070351 | 48 | 92 | 0.0 | 0.0 | 0.00 | 0.01 | 0.01 | 99 | 1009.9 |
| 20260509065847 | 48 | 101 | 0.0 | 0.0 | 0.00 | 0.01 | 0.01 | 99 | 1010.0 |
| 20260509065343 | 48 | 83 | 0.0 | 0.0 | 0.00 | 0.01 | 0.01 | 99 | 1010.0 |
| 20260509064839 | 48 | 81 | 0.0 | 0.0 | 0.00 | 0.01 | 0.01 | 99 | 1010.1 |
| 20260509064337 | 48 | 115 | 0.0 | 0.0 | 0.00 | 0.01 | 0.01 | 99 | 1010.0 |
| 20260509063835 | 48 | 122 | 0.0 | 0.0 | 0.00 | 0.01 | 0.01 | 99 | 1010.2 |
| 20260509063330 | 49 | 126 | 0.0 | 0.0 | 0.00 | 0.01 | 0.01 | 99 | 1010.2 |
| 20260509062828 | 49 | 115 | 0.0 | 0.0 | 0.00 | 0.01 | 0.01 | 99 | 1010.3 |
| 20260509062325 | 49 | 104 | 0.0 | 0.0 | 0.00 | 0.01 | 0.01 | 99 | 1010.3 |
| 20260509061822 | 49 | 110 | 0.0 | 0.0 | 0.00 | 0.01 | 0.01 | 99 | 1010.4 |
| 20260509061320 | 49 | 100 | 0.0 | 0.0 | 0.00 | 0.01 | 0.01 | 99 | 1010.4 |
| 20260509060817 | 49 | 90 | 0.0 | 0.0 | 0.00 | 0.01 | 0.01 | 99 | 1010.5 |
| 20260509060314 | 49 | 136 | 0.0 | 0.0 | 0.00 | 0.01 | 0.01 | 99 | 1010.6 |
| 20260509055809 | 49 | 114 | 0.0 | 0.0 | 0.00 | 0.01 | 0.01 | 99 | 1010.6 |
| 20260509055306 | 49 | 105 | 0.0 | 0.0 | 0.00 | 0.01 | 0.01 | 99 | 1010.7 |
| 20260509054802 | 49 | 106 | 0.0 | 0.0 | 0.00 | 0.01 | 0.01 | 99 | 1010.7 |
| 20260509054258 | 49 | 143 | 0.0 | 0.0 | 0.00 | 0.01 | 0.01 | 99 | 1011.0 |
| 20260509053757 | 49 | 109 | 0.0 | 0.0 | 0.00 | 0.01 | 0.01 | 99 | 1011.1 |
| 20260509053254 | 49 | 104 | 0.0 | 0.0 | 0.00 | 0.01 | 0.01 | 99 | 1011.1 |
| 20260509052752 | 49 | 103 | 0.0 | 0.0 | 0.00 | 0.01 | 0.01 | 99 | 1011.1 |
| 20260509052249 | 49 | 94 | 0.0 | 0.0 | 0.00 | 0.01 | 0.01 | 99 | 1011.2 |
| 20260509051746 | 49 | 101 | 0.0 | 0.0 | 0.00 | 0.01 | 0.01 | 99 | 1011.0 |
| 20260509051245 | 49 | 120 | 0.0 | 0.0 | 0.00 | 0.01 | 0.01 | 99 | 1011.2 |
| 20260509050741 | 49 | 128 | 0.0 | 0.0 | 0.00 | 0.01 | 0.01 | 99 | 1011.2 |
| 20260509050237 | 49 | 70 | 0.0 | 0.0 | 0.00 | 0.01 | 0.01 | 99 | 1011.3 |
| 20260509045735 | 49 | 139 | 0.0 | 1.0 | 0.00 | 0.01 | 0.01 | 99 | 1011.3 |
| 20260509045231 | 49 | 160 | 0.0 | 1.0 | 0.00 | 0.01 | 0.01 | 99 | 1011.3 |
| 20260509044729 | 49 | 180 | 0.0 | 0.0 | 0.00 | 0.01 | 0.01 | 99 | 1011.4 |
| 20260509044226 | 49 | 127 | 0.0 | 0.0 | 0.00 | 0.01 | 0.01 | 99 | 1011.4 |
| 20260509043716 | 49 | 105 | 0.0 | 0.0 | 0.00 | 0.01 | 0.01 | 99 | 1011.4 |
| 20260509043212 | 49 | 103 | 0.0 | 0.0 | 0.05 | 0.01 | 0.01 | 99 | 1011.6 |
| 20260509042709 | 49 | 104 | 0.0 | 0.0 | 0.05 | 0.01 | 0.01 | 99 | 1011.7 |
| 20260509042205 | 49 | 97 | 0.0 | 0.0 | 0.00 | 0.00 | 0.00 | 99 | 1011.7 |
| 20260509041702 | 49 | 101 | 0.0 | 0.0 | 0.00 | 0.00 | 0.00 | 99 | 1012.0 |
| 20260509041200 | 49 | 81 | 0.0 | 0.0 | 0.00 | 0.00 | 0.00 | 99 | 1011.8 |
| 20260509040658 | 49 | 80 | 0.0 | 0.0 | 0.00 | 0.00 | 0.00 | 99 | 1012.0 |
| 20260509040154 | 49 | 98 | 0.0 | 0.0 | 0.00 | 0.16 | 0.16 | 99 | 1012.1 |
| 20260509035651 | 49 | 125 | 0.0 | 0.0 | 0.00 | 0.16 | 0.16 | 99 | 1012.2 |
| 20260509035148 | 49 | 81 | 0.0 | 0.0 | 0.00 | 0.16 | 0.16 | 99 | 1012.2 |
| 20260509034646 | 49 | 91 | 0.0 | 0.0 | 0.07 | 0.16 | 0.16 | 99 | 1012.2 |
| 20260509034143 | 49 | 86 | 0.0 | 0.0 | 0.07 | 0.16 | 0.16 | 99 | 1012.3 |
| 20260509033640 | 49 | 110 | 0.0 | 0.0 | 0.00 | 0.15 | 0.15 | 99 | 1012.4 |
| 20260509033136 | 49 | 79 | 0.0 | 0.0 | 0.00 | 0.15 | 0.15 | 99 | 1012.4 |
| 20260509032634 | 49 | 97 | 0.0 | 0.0 | 0.07 | 0.15 | 0.15 | 99 | 1012.4 |
| 20260509032131 | 50 | 89 | 0.0 | 0.0 | 0.07 | 0.15 | 0.15 | 99 | 1012.5 |
| 20260509031628 | 50 | 70 | 0.0 | 0.0 | 0.00 | 0.14 | 0.14 | 99 | 1012.4 |
| 20260509031126 | 50 | 96 | 0.0 | 0.0 | 0.00 | 0.14 | 0.14 | 99 | 1012.4 |
| 20260509030624 | 50 | 104 | 0.0 | 0.0 | 0.00 | 0.14 | 0.14 | 99 | 1012.7 |
| 20260509030121 | 50 | 93 | 0.0 | 0.0 | 0.00 | 0.14 | 0.14 | 99 | 1012.8 |
| 20260509025616 | 50 | 84 | 0.0 | 0.0 | 0.05 | 0.14 | 0.14 | 99 | 1012.8 |
| 20260509025112 | 50 | 98 | 0.0 | 0.0 | 0.00 | 0.13 | 0.13 | 99 | 1012.9 |
| 20260509024607 | 50 | 60 | 0.0 | 0.0 | 0.00 | 0.13 | 0.13 | 99 | 1012.8 |
| 20260509024103 | 50 | 106 | 0.0 | 0.0 | 0.00 | 0.13 | 0.13 | 99 | 1013.0 |
| 20260509023602 | 50 | 111 | 0.0 | 0.0 | 0.00 | 0.13 | 0.13 | 99 | 1013.1 |
| 20260509023059 | 50 | 98 | 0.0 | 0.0 | 0.07 | 0.13 | 0.13 | 99 | 1013.3 |
| 20260509022555 | 50 | 98 | 0.0 | 0.0 | 0.07 | 0.13 | 0.13 | 99 | 1013.3 |
| 20260509022053 | 50 | 98 | 0.0 | 0.0 | 0.00 | 0.12 | 0.12 | 99 | 1013.2 |
| 20260509021549 | 50 | 50 | 0.0 | 0.0 | 0.05 | 0.12 | 0.12 | 99 | 1013.4 |
| 20260509021046 | 50 | 340 | 0.0 | 0.0 | 0.05 | 0.12 | 0.12 | 99 | 1013.3 |
| 20260509020545 | 50 | 4 | 0.0 | 0.0 | 0.00 | 0.11 | 0.11 | 99 | 1013.3 |
| 20260509020041 | 50 | 349 | 0.0 | 0.0 | 0.07 | 0.11 | 0.11 | 99 | 1013.1 |
| 20260509015540 | 50 | 65 | 0.0 | 1.0 | 0.07 | 0.11 | 0.11 | 99 | 1012.9 |
| 20260509015037 | 50 | 320 | 0.0 | 0.0 | 0.00 | 0.10 | 0.10 | 99 | 1013.1 |
| 20260509014534 | 50 | 220 | 1.0 | 1.0 | 0.05 | 0.10 | 0.10 | 99 | 1013.0 |
| 20260509014030 | 50 | 65 | 0.0 | 0.0 | 0.05 | 0.10 | 0.10 | 99 | 1012.6 |
| 20260509013527 | 50 | 84 | 0.0 | 0.0 | 0.00 | 0.09 | 0.09 | 99 | 1012.4 |
| 20260509013022 | 50 | 74 | 0.0 | 0.0 | 0.00 | 0.09 | 0.09 | 99 | 1012.4 |
| 20260509012519 | 50 | 114 | 0.0 | 0.0 | 0.07 | 0.09 | 0.09 | 99 | 1012.1 |
| 20260509012016 | 50 | 284 | 0.0 | 1.0 | 0.07 | 0.09 | 0.09 | 99 | 1012.4 |
| 20260509011514 | 50 | 139 | 0.0 | 0.0 | 0.00 | 0.08 | 0.08 | 99 | 1012.0 |
| 20260509011011 | 50 | 139 | 0.0 | 0.0 | 0.00 | 0.08 | 0.08 | 99 | 1011.7 |
| 20260509010509 | 50 | 101 | 0.0 | 0.0 | 0.00 | 0.08 | 0.08 | 99 | 1011.6 |
| 20260509010005 | 50 | 5 | 0.0 | 0.0 | 0.05 | 0.08 | 0.08 | 99 | 1011.6 |
| 20260509005504 | 50 | 126 | 0.0 | 0.0 | 0.05 | 0.08 | 0.08 | 99 | 1011.6 |
| 20260509004958 | 50 | 286 | 1.0 | 1.0 | 0.00 | 0.07 | 0.07 | 99 | 1011.6 |
| 20260509004455 | 50 | 126 | 0.0 | 1.0 | 0.00 | 0.07 | 0.07 | 99 | 1011.5 |
| 20260509003952 | 50 | 84 | 0.0 | 0.0 | 0.00 | 0.07 | 0.07 | 99 | 1011.6 |
| 20260509003450 | 50 | 123 | 1.0 | 2.0 | 0.00 | 0.07 | 0.07 | 99 | 1011.7 |
| 20260509002941 | 50 | 350 | 0.0 | 0.0 | 0.00 | 0.07 | 0.07 | 99 | 1012.0 |
| 20260509002439 | 50 | 130 | 0.0 | 0.0 | 0.00 | 0.07 | 0.07 | 99 | 1011.8 |
| 20260509001936 | 50 | 40 | 0.0 | 0.0 | 0.00 | 0.07 | 0.07 | 99 | 1011.7 |
| 20260509001433 | 50 | 107 | 0.0 | 0.0 | 0.00 | 0.07 | 0.07 | 99 | 1011.5 |
| 20260509000930 | 50 | 85 | 0.0 | 0.0 | 0.00 | 0.07 | 0.07 | 99 | 1011.5 |
| 20260509000428 | 50 | 117 | 0.0 | 0.0 | 0.00 | 0.07 | 0.07 | 99 | 1011.4 |
| 20260508235923 | 51 | 94 | 0.0 | 0.0 | 0.00 | 0.07 | 0.07 | 99 | 1011.2 |
| 20260508235421 | 50 | 100 | 0.0 | 0.0 | 0.00 | 0.07 | 0.07 | 99 | 1011.3 |
| 20260508234918 | 51 | 90 | 0.0 | 0.0 | 0.00 | 0.07 | 0.07 | 99 | 1011.3 |
| 20260508234415 | 51 | 86 | 0.0 | 0.0 | 0.00 | 0.07 | 0.07 | 99 | 1011.1 |
| 20260508233912 | 51 | 126 | 0.0 | 0.0 | 0.00 | 0.07 | 0.07 | 99 | 1011.1 |
| 20260508233411 | 51 | 79 | 0.0 | 0.0 | 0.00 | 0.07 | 0.07 | 99 | 1011.1 |
| 20260508232902 | 51 | 73 | 0.0 | 0.0 | 0.00 | 0.07 | 0.07 | 99 | 1011.2 |
| 20260508232359 | 51 | 85 | 0.0 | 0.0 | 0.00 | 0.07 | 0.07 | 99 | 1011.2 |
| 20260508231857 | 51 | 121 | 0.0 | 0.0 | 0.00 | 0.07 | 0.07 | 99 | 1011.1 |
| 20260508231353 | 51 | 108 | 0.0 | 1.0 | 0.00 | 0.07 | 0.07 | 99 | 1011.0 |
| 20260508230850 | 51 | 143 | 0.0 | 1.0 | 0.00 | 0.07 | 0.07 | 99 | 1011.2 |
| 20260508230346 | 52 | 111 | 0.0 | 0.0 | 0.00 | 0.07 | 0.07 | 99 | 1011.3 |
| 20260508225844 | 52 | 89 | 0.0 | 0.0 | 0.00 | 0.07 | 0.07 | 99 | 1011.5 |
| 20260508225340 | 52 | 108 | 0.0 | 0.0 | 0.00 | 0.07 | 0.07 | 99 | 1011.5 |
| 20260508224839 | 52 | 101 | 0.0 | 0.0 | 0.00 | 0.07 | 0.07 | 99 | 1011.6 |
| 20260508224335 | 52 | 99 | 0.0 | 0.0 | 0.00 | 0.07 | 0.07 | 99 | 1011.7 |